Weather History for KVNC - April, 2013

Change the Weather History Date:

Wednesday, April 24, 2013

  Actual Average Record
Temperature  
Mean Temperature 71 °F -  
Max Temperature 80 °F 82 °F 89 °F (1975)
Min Temperature 62 °F 63 °F 48 °F (1993)
Cooling Degree Days 6    
Growing Degree Days 21 (Base 50)    
Moisture  
Dew Point 62 °F    
Average Humidity 73    
Maximum Humidity 94    
Minimum Humidity 45    
Precipitation  
Precipitation 0.00 in - - ()
Sea Level Pressure  
Sea Level Pressure 30.11 in    
Wind  
Wind Speed 10 mph (ENE)    
Max Wind Speed 13 mph    
Max Gust Speed 16 mph    
Visibility 10 miles    
Events      
Averages and records for this station are not official NWS values.
T = Trace of Precipitation, MM = Missing Value Source: NWS Daily Summary

Daily Weather History Graph

Daily Weather History Graph

Search for Another Location

Airport or City:

Trip Planner

Search our weather history database for the weather conditions in past years. The results will help you decide how hot, cold, wet, or windy it might be!

Date:

Astronomy

Apr. 24, 2013 Rise Set
Actual Time 6:56 AM EDT 7:59 PM EDT
Civil Twilight 6:32 AM EDT 8:23 PM EDT
Nautical Twilight 6:04 AM EDT 8:52 PM EDT
Astronomical Twilight 5:34 AM EDT 9:21 PM EDT
Moon 7:03 PM EDT (4/24) 5:53 AM EDT (4/24)
Length of Visible Light 13h 50m
Length of Day
13h 02m
Waxing Gibbous, 98% of the Moon is Illuminated
Apr 24
Waxing Gibbous
Apr 25
Full
May 2
Last Quarter
May 9
New
May 18
First Quarter

Hourly Weather History & Observations

Time (EDT) Temp. Heat Index Dew Point Humidity Pressure Visibility Wind Dir Wind Speed Gust Speed Precip Events Conditions
12:15 AM 69.8 °F - 60.8 °F 73% 30.11 in 10.0 mi East 11.5 mph - N/A   Clear
12:35 AM 68.0 °F - 60.8 °F 78% 30.11 in 10.0 mi East 12.7 mph - N/A   Clear
12:55 AM 68.0 °F - 60.8 °F 78% 30.11 in 10.0 mi East 11.5 mph - N/A   Clear
1:15 AM 68.0 °F - 60.8 °F 78% 30.11 in 10.0 mi East 10.4 mph - N/A   Clear
1:35 AM 66.2 °F - 60.8 °F 83% 30.11 in 10.0 mi East 10.4 mph - N/A   Clear
1:55 AM 66.2 °F - 60.8 °F 83% 30.10 in 10.0 mi ENE 10.4 mph - N/A   Clear
2:15 AM 66.2 °F - 62.6 °F 88% 30.09 in 10.0 mi ENE 10.4 mph - N/A   Clear
2:35 AM 66.2 °F - 60.8 °F 83% 30.09 in 10.0 mi ENE 10.4 mph - N/A   Clear
2:55 AM 64.4 °F - 60.8 °F 88% 30.09 in 10.0 mi ENE 10.4 mph - N/A   Clear
3:15 AM 64.4 °F - 60.8 °F 88% 30.09 in 10.0 mi ENE 9.2 mph - N/A   Clear
3:35 AM 64.4 °F - 60.8 °F 88% 30.09 in 10.0 mi ENE 10.4 mph - N/A   Clear
3:55 AM 64.4 °F - 60.8 °F 88% 30.08 in 10.0 mi ENE 10.4 mph - N/A   Clear
4:15 AM 62.6 °F - 60.8 °F 94% 30.09 in 10.0 mi ENE 10.4 mph - N/A   Clear
4:35 AM 62.6 °F - 60.8 °F 94% 30.09 in 10.0 mi ENE 10.4 mph - N/A   Clear
4:55 AM 62.6 °F - 60.8 °F 94% 30.08 in 10.0 mi ENE 11.5 mph - N/A   Clear
5:15 AM 62.6 °F - 60.8 °F 94% 30.09 in 10.0 mi ENE 11.5 mph - N/A   Clear
5:35 AM 62.6 °F - 59.0 °F 88% 30.09 in 10.0 mi ENE 10.4 mph - N/A   Clear
5:55 AM 62.6 °F - 59.0 °F 88% 30.10 in 10.0 mi ENE 10.4 mph - N/A   Clear
6:15 AM 62.6 °F - 59.0 °F 88% 30.10 in 10.0 mi ENE 11.5 mph - N/A   Clear
6:35 AM 62.6 °F - 59.0 °F 88% 30.11 in 10.0 mi ENE 10.4 mph - N/A   Clear
6:55 AM 62.6 °F - 59.0 °F 88% 30.11 in 9.0 mi ENE 9.2 mph - N/A   Clear
7:15 AM 62.6 °F - 59.0 °F 88% 30.12 in 8.0 mi ENE 10.4 mph - N/A   Clear
7:35 AM 62.6 °F - 59.0 °F 88% 30.13 in 8.0 mi ENE 9.2 mph - N/A   Clear
7:55 AM 62.6 °F - 60.8 °F 94% 30.13 in 9.0 mi ENE 9.2 mph - N/A   Clear
8:15 AM 64.4 °F - 60.8 °F 88% 30.13 in 9.0 mi ENE 9.2 mph - N/A   Clear
8:35 AM 66.2 °F - 60.8 °F 83% 30.14 in 10.0 mi East 8.1 mph - N/A   Clear
9:15 AM 68.0 °F - 60.8 °F 78% 30.15 in 10.0 mi East 8.1 mph - N/A   Clear
9:35 AM 71.6 °F - 62.6 °F 73% 30.15 in 10.0 mi East 6.9 mph - N/A   Clear
9:55 AM 71.6 °F - 62.6 °F 73% 30.15 in 10.0 mi East 8.1 mph - N/A   Clear
10:15 AM 75.2 °F - 62.6 °F 65% 30.15 in 10.0 mi SE 12.7 mph 16.1 mph N/A   Clear
10:35 AM 75.2 °F - 62.6 °F 65% 30.15 in 10.0 mi ESE 6.9 mph - N/A   Clear
10:55 AM 77.0 °F - 60.8 °F 57% 30.15 in 10.0 mi SE 9.2 mph - N/A   Clear
11:15 AM 77.0 °F - 60.8 °F 57% 30.16 in 10.0 mi ESE 5.8 mph - N/A   Clear
11:35 AM 78.8 °F - 60.8 °F 54% 30.15 in 10.0 mi SSE 10.4 mph - N/A   Clear
11:55 AM 77.0 °F - 59.0 °F 54% 30.14 in 10.0 mi ESE 10.4 mph - N/A   Clear
12:15 PM 80.6 °F 81.1 °F 59.0 °F 48% 30.14 in 10.0 mi East 9.2 mph - N/A   Clear
12:35 PM 80.6 °F 81.1 °F 59.0 °F 48% 30.13 in 10.0 mi ESE 6.9 mph - N/A   Clear
12:55 PM 80.6 °F 80.8 °F 57.2 °F 45% 30.12 in 10.0 mi SSE 3.5 mph - N/A   Clear
1:15 PM 78.8 °F - 64.4 °F 61% 30.12 in 2.5 mi SSW 12.7 mph - N/A   Haze
1:35 PM 78.8 °F - 62.6 °F 57% 30.12 in 10.0 mi SSW 12.7 mph - N/A   Clear
2:15 PM 78.8 °F - 62.6 °F 57% 30.11 in 10.0 mi SW 11.5 mph - N/A   Clear
2:35 PM 78.8 °F - 62.6 °F 57% 30.11 in 10.0 mi SW 10.4 mph - N/A   Clear
2:55 PM 78.8 °F - 62.6 °F 57% 30.11 in 10.0 mi WSW 11.5 mph - N/A   Clear
3:15 PM 78.8 °F - 64.4 °F 61% 30.10 in 10.0 mi WSW 10.4 mph - N/A   Clear
3:35 PM 78.8 °F - 64.4 °F 61% 30.10 in 10.0 mi West 10.4 mph - N/A   Clear
3:55 PM 77.0 °F - 64.4 °F 65% 30.09 in 10.0 mi WSW 10.4 mph - N/A   Clear
4:15 PM 78.8 °F - 64.4 °F 61% 30.09 in 10.0 mi West 10.4 mph - N/A   Clear
4:35 PM 78.8 °F - 64.4 °F 61% 30.09 in 9.0 mi West 11.5 mph - N/A   Clear
4:55 PM 77.0 °F - 64.4 °F 65% 30.09 in 10.0 mi WNW 11.5 mph - N/A   Clear
5:15 PM 77.0 °F - 64.4 °F 65% 30.09 in 10.0 mi West 8.1 mph - N/A   Clear
5:35 PM 77.0 °F - 64.4 °F 65% 30.09 in 10.0 mi West 10.4 mph - N/A   Clear
5:55 PM 77.0 °F - 64.4 °F 65% 30.10 in 10.0 mi West 10.4 mph - N/A   Clear
6:15 PM 77.0 °F - 64.4 °F 65% 30.10 in 10.0 mi WNW 9.2 mph - N/A   Clear
6:35 PM 77.0 °F - 64.4 °F 65% 30.09 in 10.0 mi West 9.2 mph - N/A   Clear
6:55 PM 77.0 °F - 64.4 °F 65% 30.09 in 10.0 mi WNW 8.1 mph - N/A   Clear
7:15 PM 75.2 °F - 64.4 °F 69% 30.09 in 10.0 mi NW 9.2 mph - N/A   Clear
7:35 PM 75.2 °F - 64.4 °F 69% 30.10 in 10.0 mi NW 8.1 mph - N/A   Clear
7:55 PM 75.2 °F - 64.4 °F 69% 30.10 in 10.0 mi NW 9.2 mph - N/A   Clear
8:15 PM 73.4 °F - 64.4 °F 73% 30.11 in 10.0 mi NNW 10.4 mph - N/A   Clear
8:35 PM 73.4 °F - 64.4 °F 73% 30.11 in 10.0 mi NW 12.7 mph - N/A   Clear
8:55 PM 73.4 °F - 66.2 °F 78% 30.12 in 10.0 mi NW 11.5 mph 16.1 mph N/A   Clear
9:15 PM 73.4 °F - 66.2 °F 78% 30.13 in 10.0 mi NNW 8.1 mph - N/A   Clear
9:35 PM 73.4 °F - 66.2 °F 78% 30.13 in 10.0 mi NNW 10.4 mph - N/A   Clear
9:55 PM 73.4 °F - 66.2 °F 78% 30.14 in 10.0 mi NNW 8.1 mph - N/A   Clear
11:15 PM 71.6 °F - 64.4 °F 78% 30.15 in 10.0 mi North 8.1 mph - N/A   Clear
11:35 PM 71.6 °F - 64.4 °F 78% 30.14 in 10.0 mi NNE 9.2 mph - N/A   Clear
11:55 PM 71.6 °F - 64.4 °F 78% 30.14 in 10.0 mi NE 10.4 mph - N/A   Clear